CZ-4 DEB, 28067

Orbit data source: Space-Track

CZ-4 DEB, 28067 is space debris in SSO originally from a launch on Thu, 14 Oct 1999 UTC launched from the Taiyaun Space Center, China (TSC). Debris objects in space refer to the collection of defunct objects orbiting the Earth. Examples of debris include non-operational satellites, rocket bodies, and fragments generated from explosions, collisions, or faulty payload assembly.

Loading next visibility...
Identifier
28067, 1999-057MX
Orbit
SSO
Country
Flag of CNCN / PRC
Related business
Manufacturer
Unknown
Mission
Spacecraft
Bus & Motor
Unknown
Mass
Unknown
Launch date (UTC)
1999-10-14 (26 years ago)
Launch vehicle
Unknown
Launch site
Taiyaun Space Center, China (TSC)
Object type
Payload
Rocket body
Debris
Shape & HBR
Unknown shape, 0.1 m
Radar Cross Section
Small (<0.1 m²)

Expand to show TLE details & history
Last TLE update: 14 hours ago

TLE from 14 hours ago
0 CZ-4 DEB
1 28067U 99057MX  25303.14706328  .00008974  00000-0  15554-2 0  9997
2 28067  98.4380   9.9011 0068465  92.9559 267.9482 14.66962914209899
Epoch: 2025-10-30T03:31Z
TLE epoch observation values (Epoch: 2025-10-30T03:31:46.267Z)
Latitude
-0.00001°
Longitude
-81.7517°
Altitude
675.826 km
Speed
7.518 km/s
True Right ascension
00h 39m 36s
True Declination
0° 00' 00"
Sunlit
Object was in full shadow at epoch
Visualization orbit readout
Latitude
Unknown
Longitude
Unknown
Altitude
Unknown
Speed
Unknown
Apparent Right ascension
Unknown
Apparent Declination
Unknown
Sunlit
N/A
Visualization observer readout
Local Sidereal Time
12:45:49
Azimuth
Unknown
Elevation
Unknown
Doppler factor
Unknown
Orbital elements
Apogee altitude
716.104 km
Perigee altitude
619.623 km
Semi-major axis
7,046 km
Eccentricity
0.00685
Inclination
98.438°
RAAN
9.9011°
Arg. of periapsis
92.9559°
True anomaly
267.16442°
Mean anomaly
267.9482°
Eccentric anomaly
267.55628°
Mean motion
3.66969 °/min
Orbital period
98.1 mins
BSTAR
0.0015554
Loading maneuver chart data...
Computing Atmospheric mass density...

Documentation

Showing up to 5 results
|